Weather in Santa Luzia

Brazil     19°46′08″S   43°52′46″W
temp.,
°C
wind,
m/s
gust,
m/s
humid.,
%
clouds,
%
prec.,
mm/h
press.,
hPa
HPBL,
m
23 january, sat
sat2300:00+18e359325 0.0 1019158
03:00+17e37953 0.0 1018214
06:00+18e379049 0.0 1019321
09:00+22ene477335 0.1 1020888
12:00+26ene46583 0.0 10181349
15:00+27ne565422 0.0 10161738
18:00+23ene48750 0.0 1015361
21:00+19e38850 0.1 1018252
24 january, sun
sun2400:00+19e398530 0.0 1018393
03:00+17ese24943 0.0 1017105
06:00+16e36964 0.0 1018208
09:00+22ene476928 0.0 1018803
12:00+27ene34558 0.0 10161269
15:00+27ene455418 0.0 10131229
18:00+23e487791 0.1 1013331
21:00+19e248898 0.0 1015140
25 january, mon
mon2500:00+18e23940 0.0 101685
03:00+17e3695100 0.0 1015179
06:00+17ese2597100 0.0 1016164
09:00+23e34753 0.0 1017735
12:00+27ne336013 0.0 10151207
15:00+27ene445976 0.1 10121371
18:00+24ene477517 0.1 1013367
21:00+20e36900 0.9 1015159
26 january, tue
tue2600:00+19e24940 0.0 1015113
03:00+17e239462 0.0 101570
06:00+17ese229658 0.0 101665
09:00+23ene357648 0.0 1017681
12:00+26ene336436 0.1 10151120
15:00+28ene455415 0.0 10121563
18:00+24ene377778 0.2 1013376
21:00+20e349082 0.3 1015157
27 january, wed
wed2700:00+17ese24920 0.0 1015104
03:00+17e129397 0.0 101548
06:00+16e2294100 0.0 101659
09:00+23ene347428 0.0 1016727
12:00+27nne335718 0.0 10141330
15:00+28nne2348100 0.0 10121547
18:00+24ne3672100 0.0 1012222
21:00+19e23800 0.0 101460